Regional Weather Roundup
Issued by NWS Grand Forks, ND

Home | Current Version | Previous Version | Graphics & Text | Print | Product List | Glossary On
Versions: 1 2 3 4 5 6 7 8 9 10 11 12 13 14 15 16 17 18 19 20 21 22 23 24 25 26 27 28 29 30 31 32 33 34 35 36 37 38 39 40 41 42 43 44 45 46 47 48 49 50
000
ASUS43 KFGF 302110
RWRFGF
PRAIRIE TO PINES  WEATHER ROUNDUP
NATIONAL WEATHER SERVICE EASTERN NORTH DAKOTA/GRAND FORKS ND
400 PM CDT TUE JUN 30 2015

 **SATELLITE DATA USED TO AUGMENT SKY COVER AT AUTOMATED STATIONS**
 *****  WEATHER ACROSS EASTERN NORTH DAKOTA  *****

CITY           SKY/WX    TMP DP  RH WIND       PRES   REMARKS
GRAND FORKS    CLOUDY    76  58  53 SE6       29.91S
GRAND FRKS AFB CLOUDY    74  59  58 SE6       29.92R
GRAND FRKS NWS   N/A     75 N/A N/A E7          N/A
DEVILS LAKE    CLOUDY    70  57  64 E7        29.93R
FARGO          CLOUDY    74  58  57 E6        29.90F
WAHPETON ARPT  MOCLDY    72  55  56 S3        29.92S
$$

 ***** WEATHER ACROSS CENTRAL AND WESTERN NORTH DAKOTA  *****

CITY           SKY/WX    TMP DP  RH WIND       PRES   REMARKS
BISMARCK       CLOUDY    77  59  53 SE8       29.89F
MINOT          CLOUDY    69  63  81 NE3       29.90F HAZE
JAMESTOWN      PTSUNNY   73  61  65 SE10      29.91F
MINOT AFB      CLOUDY    70  70  99 NE8       29.90F
GARRISON         N/A     70  67  90 CALM      29.92R
WILLISTON      PTSUNNY   78  57  48 E16       29.89S HAZE
DICKINSON      MOSUNNY   76  63  64 SE16      29.88F
HETTINGER      CLOUDY    78  65  63 SE16G24   29.90F
$$

 *****  OTHER AIRPORT OBSERVATIONS IN OUR AREA  *****

CITY           SKY/WX    TMP DP  RH WIND       PRES   REMARKS
WALHALLA       FAIR      73  59  60 MISG      29.93S
GRAFTON AIRPOR FAIR      75  57  53 VRB5      29.93S
VALLEY CITY AR FAIR      72  63  73 S7        29.93R
CANDO          FAIR      70  63  78 SE8       29.94S
CAVALIER APRT  FAIR      75  59  57 S3        29.92S
GWINNER        NOT AVBL
SHEYENNE NWR     N/A     73  61  66 SE6       29.95
ROLLA          FAIR      68  59  73 SE6       29.96S
 ***** THE ABOVE OBSERVATIONS ARE NON NWS ARE NOT QUALITY
       CONTROLLED AND MAY MIS-REPORT RAIN FOR SNOW...
$$

  *****  WEATHER ACROSS NORTHERN MINNESOTA  *****

CITY           SKY/WX    TMP DP  RH WIND       PRES   REMARKS
FLAG ISLAND    NOT AVBL
WARROAD        SUNNY     70  55  60 NE8       29.96F
ROSEAU         MOSUNNY   73  61  64 NE3       29.95F
HALLOCK        MOSUNNY   75  59  57 CALM      29.92S
THF RVR FALLS  MOSUNNY   73  55  53 CALM      29.94F
BAUDETTE       SUNNY     73  50  44 CALM      29.96S
WASKISH        MOSUNNY   75  55  50 W5        29.95S
CROOKSTON      PTSUNNY   75  55  50 E5        29.93S
$$
  *****  WEATHER ACROSS CENTRAL AND WEST MINNESOTA  *****

CITY           SKY/WX    TMP DP  RH WIND       PRES   REMARKS
FOSSTON        PTSUNNY   73  59  60 CALM      29.95F
BEMIDJI        CLOUDY    73  54  50 E6        29.95S
PARK RAPIDS    CLOUDY    75  53  46 VRB3      29.94F
ELBOW LAKE     FAIR      73  57  56 SE5       29.91F
WADENA         CLOUDY    73  57  56 NE3       29.93F
DETROIT LAKES  CLOUDY    73  55  53 NE5       29.94F
MOORHEAD       CLOUDY    73  59  60 E3        29.92S
FERGUS FALLS   CLOUDY    73  55  53 E3        29.91S
MORRIS MN      CLOUDY    75  61  60 S8        29.91F
STAPLES        PTSUNNY   73  48  40 SE3       29.94S
$$
  *****  WEATHER ELSEWHERE ACROSS MINNESOTA  *****

CITY           SKY/WX    TMP DP  RH WIND       PRES   REMARKS
DULUTH         MOSUNNY   61  44  53 SE10      29.98S
INTRNTL FALLS  MOSUNNY   70  52  52 NE8       29.96F
ELY            SUNNY     68  41  37 E9        29.96F
CLOQUET        MOSUNNY   64  50  59 SE6       29.97S
WHEATON        PTSUNNY   70  59  68 SE7       29.92F
BRAINERD       CLOUDY    74  53  48 VRB5      29.94F
HIBBING        PTSUNNY   70  48  45 CALM      29.96S
ALEXANDRIA     CLOUDY    74  54  49 E6        29.94F
SAINT CLOUD    PTSUNNY   76  55  48 CALM      29.93S
MINNEAPOLIS    PTSUNNY   76  55  48 NE9       29.92S
$$

  *****  WEATHER ACROSS SOUTH DAKOTA  *****

CITY           SKY/WX    TMP DP  RH WIND       PRES   REMARKS
SIOUX FALLS    LGT RAIN  75  64  68 SE6       29.92S
BROOKINGS      CLOUDY    75  63  64 E9        29.93F
WATERTOWN      CLOUDY    73  61  65 E7        29.92F
HURON          LGT RAIN  71  67  87 SE6       29.90F
SISSETON         N/A     73  61  65 S10       29.91F
ABERDEEN       CLOUDY    76  62  62 E5        29.90S
MITCHELL       LGT RAIN  72  69  90 NE6       29.91S
PIERRE         CLOUDY    76  66  71 E14       29.87F
MOBRIDGE       LGT RAIN  71  68  90 E8        29.90F FOG
RAPID CITY     PTSUNNY   83  70  64 NE14      29.91R
$$

  *****  SOME WEATHER IN NEARBY STATES *****

CITY           SKY/WX    TMP DP  RH WIND       PRES   REMARKS
GLASGOW MT     NOT AVBL
GREAT FALLS MT SUNNY     91  40  16 NW17G25   29.97F
CHEYENNE WY    CLOUDY    84  43  23 NW8       30.15F
SCOTTSBLUFF NE MOSUNNY   98  48  18 VRB3      29.94F HX  94
OMAHA NE       LGT RAIN  75  69  81 N6        29.91R
DES MOINES IA  CLOUDY    81  63  54 NW8       29.89F
DAVENPORT IA   MOSUNNY   81  64  56 NW7       29.86S
CHICAGO IL     PTSUNNY   75  59  57 N14       29.82R
EAU CLAIRE WI  MOSUNNY   74  52  46 N9        29.90S
LA CROSSE WI   MOSUNNY   76  54  46 NW14      29.88S
$$

  *****  SOME NATIONAL WEATHER *****

CITY           SKY/WX    TMP DP  RH WIND       PRES   REMARKS
LA GUARDIA NY  PTSUNNY   77  60  55 S20G26    29.89F
RALEIGH NC     MOSUNNY   91  68  46 W8        29.86F HX  95
ATLANTA GA     PTSUNNY   85  64  49 SW10      29.97F
NEW ORLEANS LA PTSUNNY   89  66  46 SW10      30.05S HX  91
OKLAHOMA CITY  MOSUNNY   93  64  38 S9        29.97F HX  94
ALBUQUERQUE NM MOSUNNY   91  46  21 NW7       30.14F
SALT LAKE CITY MOSUNNY   99  50  19 NW8       30.01F HX  96
LOS ANGELES CA MOSUNNY   74  64  71 W13       29.90S
BOISE ID       SUNNY     98  54  22 W9G22     29.96F HX  96
SEATTLE WA     MOSUNNY   80  60  50 W8        30.10F
$$

*** WEATHER ACROSS MANITOBA...SASKATCHEWAN AND ONTARIO ***
                ***ONTARIO***

CITY           SKY/WX    TMP DP  RH WIND       PRES   REMARKS
GERALDTON      PTSUNNY   63  41  45 N9        29.96F
THUNDER BAY    PTSUNNY   66  45  45 SE3       29.95S
SIOUX LOOKOUT  PTSUNNY   66  46  48 N5        29.98F
TORONTO        CLOUDY    63  59  88 E9        29.77F
BIG TROUT LK   MOSUNNY   64  37  36 S5        29.98F
PICKLE LAKE    MOSUNNY   64  37  36 N3        29.98F
DRYDEN         CLOUDY    66  50  55 NE6       29.98F
KENORA         PTSUNNY   70  52  52 S6        29.97S
$$
                *** MANITOBA***

CITY           SKY/WX    TMP DP  RH WIND       PRES   REMARKS
BRANDON        CLOUDY    73  57  56 E6        29.94F
DAUPHIN        SUNNY     73  59  60 E7        29.94S
ISLAND LAKE    PTSUNNY   66  41  39 VRB2      29.95F
PILOT MOUND      N/A     72  59  64 E5          N/A
THE PAS        CLOUDY    77  61  57 S8        29.88F
THOMPSON       CLOUDY    66  55  68 SW6       29.91F
WINNIPEG       PTSUNNY   73  61  64 VRB2      29.93F
LYNN LAKE      SUNNY     66  61  82 SE6       29.89F
CHURCHILL      MOSUNNY   64  39  39 NE12      29.89F
GILLAM         CLOUDY    63  54  72 E3        29.91F
$$
                ***SASKATCHEWAN***

CITY           SKY/WX    TMP DP  RH WIND       PRES   REMARKS
ESTEVAN        CLOUDY    66  61  82 CALM      29.93F THUNDER SMOKE
KINDERSLEY     CLOUDY    63  57  82 NE13      29.97R SMOKE
LLOYDMINSTER   CLOUDY    70  61  73 W9        29.99S SMOKE
PRINCE ALBERT    N/A     73  63  68 S6        29.89F SMOKE
REGINA         LGT RAIN  64  59  82 N3        29.94R SMOKE
YORKTON        SUNNY     73  59  60 SE8       29.93F
N. BATTLEFORD  NOT AVBL
LA RONGE       SMOKE     77  59  53 SW3       29.86S VSB 1/2
SASKATOON        N/A     70  55  60 W6        29.95F SMOKE
SWIFT CURRENT  PTSUNNY   75  57  53 E13G25    29.89S HAZE
$$
NOTE: THESE ARE AUTOMATED STATIONS WITH LIMITED QUALITY CONTROL
      "FAIR" INDICATES FEW OR NO CLOUDS BELOW 12,000 FEET WITH NO
      SIGNIFICANT WEATHER AND/OR OBSTRUCTIONS TO VISIBILITY.
      SKY/WX - SKY CONDITION AND SIGNIFICANT WEATHER.
      TMP - AIR TEMPERATURE.    DP   - DEWPOINT TEMPERATURE.
      RH  - RELATIVE HUMIDITY.  PRES - PRESSURE.
      HX  - HEAT INDEX.         WCI  - WIND CHILL INDEX.
$


USA.gov is the U.S. government's official web portal to all federal, state and local government web resources and services.